Weather History for Lee's Summit, MO

Change the Weather History Date:

Wednesday, May 1, 2013

  Actual Average (KMKC) Record (KMKC)
Temperature  
Mean Temperature 64 °F -  
Max Temperature 81 °F 69 °F 84 °F (2001)
Min Temperature 45 °F 50 °F 37 °F (2005)
Degree Days  
Heating Degree Days 2    
Growing Degree Days 14 (Base 50)    
Moisture  
Dew Point 50 °F    
Average Humidity 57    
Maximum Humidity 74    
Minimum Humidity 44    
Precipitation  
Precipitation 0.00 in - - ()
Sea Level Pressure  
Sea Level Pressure 29.99 in    
Wind  
Wind Speed 11 mph (SE)    
Max Wind Speed 25 mph    
Max Gust Speed 31 mph    
Visibility 10 miles    
Events      
Averages and records for this station are not official NWS values.
T = Trace of Precipitation, MM = Missing Value Source: NWS Daily Summary

Daily Weather History Graph

Daily Weather History Graph

Search for Another Location

Airport:

Trip Planner

Search our weather history database for the weather conditions in past years. The results will help you decide how hot, cold, wet, or windy it might be!

Date:

Astronomy

May. 01, 2013 Rise Set
Actual Time 6:19 AM CDT 8:10 PM CDT
Civil Twilight 5:50 AM CDT 8:39 PM CDT
Nautical Twilight 5:15 AM CDT 9:14 PM CDT
Astronomical Twilight 4:38 AM CDT 9:52 PM CDT
Moon 1:20 AM CDT (5/1) 11:58 AM CDT (5/1)
Length of Visible Light 14h 48m
Length of Day
13h 51m
Waning Gibbous, 59% of the Moon is Illuminated
May 1
Waning Gibbous
May 2
Last Quarter
May 9
New
May 17
First Quarter
May 24
Full

Hourly Weather History & Observations

Time (CDT) Temp. Windchill Dew Point Humidity Pressure Visibility Wind Dir Wind Speed Gust Speed Precip Events Conditions
12:53 AM 68.0 °F - 46.9 °F 47% 29.83 in 10.0 mi South 11.5 mph - N/A   Clear
1:53 AM 64.9 °F - 48.0 °F 54% 29.84 in 10.0 mi SSE 8.1 mph - N/A   Clear
2:53 AM 63.0 °F - 48.0 °F 58% 29.86 in 10.0 mi SSE 6.9 mph - N/A   Clear
3:53 AM 63.0 °F - 48.0 °F 58% 29.88 in 10.0 mi SSE 6.9 mph - N/A   Clear
4:53 AM 62.1 °F - 48.9 °F 62% 29.90 in 10.0 mi SSE 5.8 mph - N/A   Scattered Clouds
5:53 AM 62.1 °F - 48.0 °F 60% 29.92 in 10.0 mi SE 6.9 mph - N/A   Scattered Clouds
6:53 AM 62.1 °F - 48.9 °F 62% 29.94 in 10.0 mi SSE 6.9 mph - N/A   Mostly Cloudy
7:53 AM 64.0 °F - 50.0 °F 60% 29.96 in 10.0 mi SSE 8.1 mph - N/A   Mostly Cloudy
8:53 AM 66.9 °F - 52.0 °F 59% 29.96 in 10.0 mi SSE 10.4 mph - N/A   Partly Cloudy
9:53 AM 71.1 °F - 55.9 °F 59% 29.97 in 10.0 mi South 9.2 mph - N/A   Clear
11:53 AM 77.0 °F - 59.0 °F 54% 29.99 in 10.0 mi South 6.9 mph - N/A   Partly Cloudy
12:53 PM 77.0 °F - 57.9 °F 52% 29.98 in 10.0 mi SE 9.2 mph - N/A   Scattered Clouds
1:53 PM 79.0 °F - 57.0 °F 47% 29.97 in 10.0 mi SSE 11.5 mph 19.6 mph N/A   Scattered Clouds
2:53 PM 81.0 °F - 57.0 °F 44% 29.96 in 10.0 mi South 11.5 mph 17.3 mph N/A   Partly Cloudy
3:53 PM 79.0 °F - 55.0 °F 44% 29.97 in 10.0 mi SSE 9.2 mph - N/A   Mostly Cloudy
4:53 PM 81.0 °F - 57.9 °F 45% 29.96 in 10.0 mi SSE 8.1 mph - N/A   Partly Cloudy
5:53 PM 77.0 °F - 55.9 °F 48% 29.97 in 10.0 mi North 12.7 mph 17.3 mph N/A   Partly Cloudy
6:13 PM 69.8 °F - 53.6 °F 56% 30.00 in 10.0 mi North 18.4 mph - N/A   Mostly Cloudy
6:53 PM 68.0 °F - 51.1 °F 55% 30.01 in 10.0 mi North 24.2 mph 29.9 mph N/A   Overcast
7:53 PM 62.1 °F - 46.9 °F 58% 30.05 in 10.0 mi North 25.3 mph 29.9 mph N/A   Mostly Cloudy
8:53 PM 55.9 °F - 43.0 °F 62% 30.09 in 10.0 mi North 20.7 mph 31.1 mph N/A   Partly Cloudy
9:53 PM 50.0 °F - 39.9 °F 68% 30.14 in 10.0 mi NNW 18.4 mph 31.1 mph N/A   Mostly Cloudy
10:53 PM 48.0 °F - 39.0 °F 71% 30.15 in 10.0 mi North 17.3 mph 25.3 mph N/A   Overcast
11:19 PM 46.4 °F 39.2 °F 37.4 °F 71% 30.17 in 10.0 mi North 18.4 mph 29.9 mph N/A   Overcast
11:53 PM 45.0 °F 37.9 °F 37.0 °F 74% 30.17 in 10.0 mi North 16.1 mph 24.2 mph N/A   Mostly Cloudy